Location: Maiden
(35.5760°N, 81.2120°W)
Time: 23:37:54
(UTC-04:00)

H-2A R/B - Pass Details

Date: 14 June 2018
Orbit: 733 x 838 km, 98.3° (Epoch: 18 August)

Event Time Altitude Azimuth Distance (km) Brightness Sun altitude
Exits shadow 21:58:07 19° 138° (SE) 1,781 3.3 -13.4°
Maximum altitude 22:01:33 48° 72° (ENE) 1,033 2.5 -13.9°
Drops below altitude 10° 22:06:37 10° 360° (N) 2,399 5.2 -14.7°
Sets 22:09:03 0° 355° (N) 3,349 6.1 -15.0°
